sat.trackr.live / text

‹ back to catalog

IRIDIUM 145

NORAD 43253 · 2018-030E

PAYLOAD ACTIVE UNKNOWN

§ Identity

Operator
Country
US
Launch date
2018-03-30
Launch site
AFWTR
Launch vehicle
Mass (kg)
RCS (m²)

Purposes: comms

External: N2YO · Heavens-Above · Gunter

§ Orbital elements

Epoch: 2026-09-04T04:05:31.170624Z

Period
100.40 min
Inclination
86.3906°
Eccentricity
0.0002180
Mean motion
14.34218292 rev/d
Perigee alt
776.1 km
Apogee alt
779.2 km
Semi-major
7,155.8 km
B*
-3.3254e-6
RAAN
257.3693°
Arg perigee
83.9151°
Mean anomaly
276.2293°
Rev number
44,144

§ Raw data

IRIDIUM 1451 43253U 18030E   26247.17049966  .00000010  00000+0 -33254-5 0  99952 43253  86.3906 257.3693 0002180  83.9151 276.2293 14.34218292441448

JSON: /api/v1/satellites/43253 · /tle

For live sub-satellite position, see the globe view (requires WebGL).

§ Visibility from observer

Set your observer location to see the next 7 days of passes ≥ 10°. The values pass through the URL so the page stays shareable.

No JS? Fill the form by hand. The geolocation button needs JavaScript.